Tracking 31027 objects as of 19-Jul-2025
HD Live streaming from Space Station
objects crossing your sky now

STARLINK-32952

Track STARLINK-32952 now!
10-day predictions
STARLINK-32952 is classified as:


NORAD ID: 63146
Int'l Code: 2025-043Q
Perigee: 489.3 km
Apogee: 491.0 km
Inclination: 43.0 °
Period: 94.3 minutes
Semi major axis: 6861 km
RCS: Unknown
Launch date: March 2, 2024
Source: United States (US)
Launch site: AIR FORCE EASTERN TEST RANGE (AFETR)
Your satellite tracking list
STARLINK-32625
Track 1 satellite(s)




NASA's NSSDC Master Catalog

Two Line Element Set (TLE):
1 63146U 25043Q   25199.47569848  .00014840  00000-0  54751-3 0  9993
2 63146  42.9989 265.7433 0001211 270.3623  89.7090 15.27591098 22094
Source of the keplerian elements: AFSPC